Tracking 26218 objects as of 26-Sep-2022
HD Live streaming from Space Station
objects crossing your sky now

FLOCK 4X 39

Track FLOCK 4X 39 now!
10-day predictions


NORAD ID: 51029
Int'l Code: 2022-002AX
Perigee: 513.0 km
Apogee: 533.6 km
Inclination: 97.5 °
Period: 95.0 minutes
Semi major axis: 6894 km
RCS: Unknown
Launch date: January 13, 2022
Source: United States (US)
Launch site: AIR FORCE EASTERN TEST RANGE (AFETR)
aabbcc
Your satellite tracking list
Your tracking list is empty




NASA's NSSDC Master Catalog

Two Line Element Set (TLE):
1 51029U 22002AX  22268.14739007  .00005528  00000-0  28580-3 0  9990
2 51029  97.4794 333.9156 0014920  84.7420 275.5515 15.16579083 38534
Source of the keplerian elements: AFSPC